Hollywood, FL

1:07 PM EST on November 22, 2019 (GMT -0500)
North Perry

Weather History for KHWO - October, 2019

Change the Weather History Date:

Wednesday, October 23, 2019

  Actual Average (KFLL) Record (KFLL)
Temperature  
Mean Temperature 84 °F 80 °F  
Max Temperature 91 °F 85 °F 92 °F (2006)
Min Temperature 77 °F 74 °F 53 °F (1925)
Degree Days  
Heating Degree Days 0 0  
Month to date heating degree days 0  
Since 1 July heating degree days 0  
Cooling Degree Days 18 14  
Month to date cooling degree days 372  
Year to date cooling degree days 4084  
Growing Degree Days 34 (Base 50)    
Moisture  
Dew Point 73 °F    
Average Humidity 74    
Maximum Humidity 94    
Minimum Humidity 52    
Precipitation  
Precipitation 0.00 in 0.17 in 2.53 in (1933)
Month to date precipitation 5.47  
Year to date precipitation 55.13  
Snow  
Snow 0.00 in - - ()
Month to date snowfall  
Since 1 July snowfall  
Since 1 September snowfall  
Snow Depth -    
Sea Level Pressure  
Sea Level Pressure 30.01 in    
Wind  
Wind Speed 4 mph (East)    
Max Wind Speed 10 mph    
Max Gust Speed 17 mph    
Visibility 10 miles    
Events      
T = Trace of Precipitation, MM = Missing Value Source: NWS Daily Summary

Daily Weather History Graph

Daily Weather History Graph

Search for Another Location

Airport or City:

Astronomy

Oct. 23, 2019 Rise Set
Actual Time 7:24 AM EDT 6:46 PM EDT
Civil Twilight 7:00 AM EDT 7:09 PM EDT
Nautical Twilight 6:33 AM EDT 7:36 PM EDT
Astronomical Twilight 6:06 AM EDT 8:03 PM EDT
Moon 2:23 AM EDT (10/23) 3:57 PM EDT (10/23)
Length of Visible Light 12h 08m
Length of Day
11h 22m
Waning Crescent, 27% of the Moon is Illuminated
Oct 23
Waning Crescent
Oct 27
New
Nov 4
First Quarter
Nov 12
Full
Nov 19
Last Quarter

Hourly Weather History & Observations

Time (EDT) Temp. Heat Index Dew Point Humidity Pressure Visibility Wind Dir Wind Speed Gust Speed Precip Events Conditions
12:53 AM 79.0 °F - 75.0 °F 88% 30.01 in 10.0 mi WSW 4.6 mph - N/A   Clear
1:53 AM 78.1 °F - 73.9 °F 87% 30.00 in 10.0 mi NW 3.5 mph - N/A   Clear
2:53 AM 79.0 °F - 73.9 °F 84% 29.99 in 10.0 mi Calm Calm - N/A   Clear
3:19 AM 79.0 °F - 73.9 °F 84% 29.98 in 10.0 mi Calm Calm - N/A   Scattered Clouds
3:27 AM 78.1 °F - 73.9 °F 87% 29.98 in 10.0 mi Calm Calm - N/A   Mostly Cloudy
3:53 AM 78.1 °F - 73.9 °F 87% 29.97 in 10.0 mi Calm Calm - N/A   Mostly Cloudy
4:03 AM 78.1 °F - 73.9 °F 87% 29.97 in 10.0 mi Calm Calm - N/A   Scattered Clouds
4:53 AM 78.1 °F - 73.9 °F 87% 29.97 in 10.0 mi Calm Calm - N/A   Clear
5:53 AM 77.0 °F - 73.9 °F 90% 29.99 in 10.0 mi Calm Calm - N/A   Clear
6:53 AM 77.0 °F - 75.0 °F 94% 29.99 in 10.0 mi Calm Calm - N/A   Clear
7:07 AM 78.1 °F - 75.0 °F 90% 29.99 in 10.0 mi Calm Calm - N/A   Partly Cloudy
7:53 AM 78.1 °F - 75.0 °F 90% 30.00 in 10.0 mi Calm Calm - N/A   Partly Cloudy
8:53 AM 82.9 °F 91.8 °F 77.0 °F 82% 30.01 in 10.0 mi Calm Calm - N/A   Clear
9:53 AM 86.0 °F 95.1 °F 75.0 °F 70% 30.02 in 10.0 mi East 5.8 mph - N/A   Mostly Cloudy
10:11 AM 87.1 °F 94.5 °F 73.0 °F 63% 30.02 in 10.0 mi SE 6.9 mph - N/A   Scattered Clouds
10:53 AM 88.0 °F 95.6 °F 73.0 °F 61% 30.03 in 10.0 mi ESE 5.8 mph - N/A   Scattered Clouds
11:53 AM 89.1 °F 98.0 °F 73.9 °F 61% 30.03 in 10.0 mi Variable 3.5 mph - N/A   Scattered Clouds
12:53 PM 89.1 °F 94.1 °F 70.0 °F 53% 30.02 in 10.0 mi Variable 6.9 mph - N/A   Clear
1:53 PM 90.0 °F 95.4 °F 70.0 °F 52% 30.00 in 10.0 mi ESE 8.1 mph - N/A   Clear
2:53 PM 90.0 °F 96.9 °F 72.0 °F 55% 29.99 in 10.0 mi East 10.4 mph 17.3 mph N/A   Clear
3:53 PM 90.0 °F 96.4 °F 71.1 °F 54% 29.99 in 10.0 mi East 10.4 mph - N/A   Clear
4:53 PM 89.1 °F 94.1 °F 70.0 °F 53% 29.98 in 10.0 mi East 10.4 mph - N/A   Clear
5:53 PM 86.0 °F 93.0 °F 73.0 °F 65% 29.99 in 10.0 mi ESE 9.2 mph - N/A   Clear
6:53 PM 84.0 °F 91.2 °F 73.9 °F 72% 30.01 in 10.0 mi ENE 9.2 mph - N/A   Clear
7:53 PM 84.0 °F 90.2 °F 73.0 °F 69% 30.02 in 10.0 mi East 9.2 mph - N/A   Clear
8:53 PM 82.9 °F 88.8 °F 73.0 °F 72% 30.04 in 10.0 mi East 8.1 mph - N/A   Clear
9:53 PM 82.9 °F 88.8 °F 73.0 °F 72% 30.06 in 10.0 mi ENE 6.9 mph - N/A   Clear
10:53 PM 82.9 °F 88.8 °F 73.0 °F 72% 30.07 in 10.0 mi ENE 9.2 mph - N/A   Clear
11:53 PM 82.9 °F 88.0 °F 72.0 °F 69% 30.07 in 10.0 mi East 9.2 mph - N/A   Clear